Regional Weather Roundup
Issued by NWS State College, PA

Home | Current Version | Previous Version | Graphics & Text | Print | Product List | Glossary Off
Versions: 1 2 3 4 5 6 7 8 9 10 11 12 13 14 15 16 17 18 19 20 21 22 23 24 25 26 27 28 29 30 31 32 33 34 35 36 37 38 39 40 41 42 43 44 45 46 47 48 49 50

000
ASUS41 KCTP 282110
RWRCTP

REGIONAL WEATHER ROUNDUP
NATIONAL WEATHER SERVICE STATE COLLEGE PA
500 PM EDT SAT MAY 28 2016

Note: "fair" indicates few or no clouds below 12,000 feet with no
significant weather and/or obstructions to visibility.

* = STATION THAT DOES NOT REPORT PRECIPITATION /E.G. RAIN...SNOW...ETC/
    THUNDER OR FOG.

PAZ002>004-007>009-013>016-020>023-029>032-282200-
WESTERN PENNSYLVANIA

CITY           SKY/WX    TMP DP  RH WIND       PRES   REMARKS
ERIE           PTSUNNY   80  68  66 SE7       30.08F
MEADVILLE      CLOUDY    81  65  58 S3        30.10F
FRANKLIN*      CLOUDY    86  63  45 SW8       30.12F
NEW CASTLE     NOT AVBL
BEAVER COUNTY  PTSUNNY   86  66  51 S7        30.08F
BUTLER*        SUNNY     88  64  45 CALM      30.12F
PITTSBURGH INT MOSUNNY   87  62  43 S9        30.08F
PITTSBURGH     SUNNY     87  62  43 S9        30.08F
INDIANA*       SUNNY     86  66  51 S9        30.14S
LATROBE        PTSUNNY   73  73 100 CALM      30.12S
WASHINGTON CO* SUNNY     84  64  51 SW3       30.10F
$$

PAZ004>006-010>012-017>019-024>028-033>037-041-042-045-046-049>053-282200-
CENTRAL PENNSYLVANIA

CITY           SKY/WX    TMP DP  RH WIND       PRES   REMARKS
BRADFORD         N/A    N/A N/A N/A MISG      30.14F THUNDER
DUBOIS         PTSUNNY   83  60  45 S5        30.11F
CLEARFIELD     PTSUNNY   83  64  52 S8        30.13F
JOHNSTOWN      SUNNY     82  60  47 S6        30.16F
ALTOONA        CLOUDY    86  62  44 S8        30.12F
STATE COLLEGE  MOSUNNY   84  68  58 E3        30.11F
WILLIAMSPORT   CLOUDY    87  64  46 S10       30.06S
SELINSGROVE    CLOUDY    85  67  54 N5        30.08F
FT INDIANTOWN  MOSUNNY   87  69  54 S6        30.08F
CAPITAL CITY   MOSUNNY   90  67  46 S12       30.07F
HARRISBURG     MOSUNNY   90  67  46 S7        30.07F
YORK           SUNNY     87  68  52 SW8       30.08F
$$

PAZ038>040-043-044-047-048-054-055-060>062-067>071-282200-
EASTERN PENNSYLVANIA

CITY           SKY/WX    TMP DP  RH WIND       PRES   REMARKS
SCRANTON       CLOUDY    89  63  41 VRB6      30.10S THUNDER
MOUNT POCONO   LGT RAIN  72  64  76 NE9       30.18S
ALLENTOWN      PTSUNNY   91  67  44 S10       30.08S
QUAKERTOWN*    PTCLDY    88  68  51 SW10      30.11S
READING        MOSUNNY   89  67  47 S13       30.07F
LANCASTER      SUNNY     86  68  54 S10       30.09F
COATESVILLE    CLEAR     84  64  51 VRB5G12   30.14S
POTTSTOWN      SUNNY     87  65  47 S9G20     30.12S
BLUE BELL      MOSUNNY   86  68  54 SW8       30.10S
DOYLESTOWN     MOSUNNY   86  64  47 SW10      30.09F
WILLOW GROVE   NOT AVBL
NORTH PHILA    MOSUNNY   90  67  46 SW10G18   30.11F
PHILADELPHIA   MOSUNNY   89  64  43 SW14      30.10F
$$




USA.gov is the U.S. government's official web portal to all federal, state and local government web resources and services.